When you browse on this site, cookies collect data to enhance your experience and personalize the content and advertising you see.
Visit our Privacy Policy to learn more. By continuing to use the site, you agree to this use of cookies and data.
  • In Belgium
  • List of Countries
  • For 7 days
  • Water Temperature
  • Satellite Maps
  • Weather Map
  • Weather Widgets
  • user-avatar
    Login

    Hourly Weather Oudenaarde

    Today, 16 December, Sunday

    Time Temperature Precipitation Wind Pressure Humidity
    00:00 -2°C° 0 mm 6 mps 755 mmHg 91%
    01:00 -2°C° 0.1 mm 6 mps 755 mmHg 92%
    02:00 -2°C° 0.1 mm 6 mps 755 mmHg 93%
    03:00 -1°C° 0.1 mm 5 mps 755 mmHg 94%
    04:00 -1°C° 0 mm 5 mps 755 mmHg 95%
    05:00 -1°C° 0 mm 5 mps 755 mmHg 95%
    06:00 -1°C° 0 mm 5 mps 755 mmHg 95%
    07:00 -1°C° 0 mm 5 mps 755 mmHg 95%
    08:00 0°C° 0 mm 5 mps 756 mmHg 96%
    09:00 0°C° 0 mm 5 mps 756 mmHg 96%
    10:00 +1°C° 0 mm 5 mps 756 mmHg 96%
    11:00 +1°C° 0 mm 5 mps 756 mmHg 97%
    12:00 +3°C° 0 mm 4 mps 756 mmHg 97%
    13:00 +3°C° 0 mm 4 mps 756 mmHg 97%
    14:00 +3°C° 0 mm 4 mps 756 mmHg 97%
    15:00 +1°C° 0 mm 4 mps 756 mmHg 97%
    16:00 +1°C° 0 mm 4 mps 756 mmHg 97%
    17:00 +1°C° 0 mm 4 mps 756 mmHg 97%
    18:00 +1°C° 0 mm 4 mps 757 mmHg 97%
    19:00 +1°C° 0 mm 4 mps 757 mmHg 96%
    20:00 +1°C° 0 mm 4 mps 757 mmHg 96%
    21:00 +1°C° 0 mm 5 mps 757 mmHg 96%
    22:00 +1°C° 0.2 mm 5 mps 757 mmHg 95%
    23:00 +2°C° 0.2 mm 5 mps 757 mmHg 95%

    Tomorrow, 17 December, Monday

    Time Temperature Precipitation Wind Pressure Humidity
    00:00 +2°C° 0.2 mm 6 mps 757 mmHg 94%
    01:00 +2°C° 0.4 mm 6 mps 757 mmHg 94%
    02:00 +2°C° 0.4 mm 6 mps 757 mmHg 94%
    03:00 +2°C° 0.4 mm 6 mps 757 mmHg 94%
    04:00 +2°C° 0.1 mm 6 mps 758 mmHg 93%
    05:00 +2°C° 0.1 mm 5 mps 758 mmHg 93%
    06:00 +2°C° 0.1 mm 5 mps 759 mmHg 92%
    07:00 +2°C° 0 mm 5 mps 760 mmHg 91%
    08:00 +3°C° 0 mm 4 mps 761 mmHg 90%
    09:00 +3°C° 0 mm 4 mps 761 mmHg 90%
    10:00 +4°C° 0 mm 4 mps 762 mmHg 87%
    11:00 +6°C° 0 mm 4 mps 763 mmHg 85%
    12:00 +7°C° 0 mm 5 mps 763 mmHg 82%
    13:00 +6°C° 0 mm 4 mps 764 mmHg 84%
    14:00 +6°C° 0 mm 4 mps 764 mmHg 86%
    15:00 +7°C° 0 mm 3 mps 764 mmHg 89%
    16:00 +5°C° 0 mm 4 mps 765 mmHg 90%
    17:00 +5°C° 0 mm 4 mps 765 mmHg 91%
    18:00 +4°C° 0 mm 4 mps 766 mmHg 93%
    19:00 +4°C° 0 mm 4 mps 766 mmHg 93%
    20:00 +4°C° 0 mm 4 mps 766 mmHg 93%
    21:00 +4°C° 0 mm 4 mps 766 mmHg 93%
    22:00 +3°C° 0 mm 4 mps 766 mmHg 93%
    23:00 +2°C° 0 mm 5 mps 766 mmHg 93%

    Day after tomorrow, 18 December, Tuesday

    Time Temperature Precipitation Wind Pressure Humidity
    00:00 +2°C° 0 mm 5 mps 766 mmHg 93%
    01:00 +2°C° 0 mm 5 mps 766 mmHg 93%
    02:00 +2°C° 0 mm 5 mps 765 mmHg 93%
    03:00 +2°C° 0 mm 5 mps 765 mmHg 94%
    04:00 +2°C° 0 mm 5 mps 765 mmHg 94%
    05:00 +2°C° 0 mm 6 mps 764 mmHg 94%
    06:00 +2°C° 0 mm 6 mps 764 mmHg 94%
    07:00 +3°C° 0 mm 6 mps 764 mmHg 93%
    08:00 +3°C° 0 mm 6 mps 763 mmHg 92%
    09:00 +3°C° 0 mm 6 mps 763 mmHg 91%
    10:00 +4°C° 0 mm 7 mps 762 mmHg 85%
    11:00 +5°C° 0 mm 7 mps 761 mmHg 78%
    12:00 +6°C° 0 mm 7 mps 760 mmHg 71%
    13:00 +5°C° 0 mm 7 mps 760 mmHg 70%
    14:00 +5°C° 0 mm 7 mps 759 mmHg 69%
    15:00 +5°C° 0 mm 7 mps 758 mmHg 68%
    16:00 +4°C° 0 mm 7 mps 758 mmHg 68%
    17:00 +4°C° 0 mm 7 mps 757 mmHg 68%
    18:00 +4°C° 0 mm 8 mps 757 mmHg 69%
    19:00 +4°C° 0 mm 8 mps 756 mmHg 69%
    20:00 +4°C° 0 mm 8 mps 756 mmHg 70%
    21:00 +4°C° 0 mm 8 mps 755 mmHg 70%
    22:00 +5°C° 0.2 mm 8 mps 755 mmHg 74%
    23:00 +5°C° 0.2 mm 8 mps 755 mmHg 77%

    19 December, Wednesday

    Time Temperature Precipitation Wind Pressure Humidity
    00:00 +5°C° 0.2 mm 8 mps 754 mmHg 81%
    01:00 +5°C° 0.4 mm 7 mps 755 mmHg 84%
    02:00 +5°C° 0.4 mm 6 mps 755 mmHg 88%
    03:00 +7°C° 0.4 mm 5 mps 755 mmHg 91%
    04:00 +6°C° 0 mm 5 mps 755 mmHg 92%
    05:00 +6°C° 0 mm 5 mps 756 mmHg 93%
    06:00 +5°C° 0 mm 5 mps 756 mmHg 94%
    07:00 +5°C° 0 mm 5 mps 756 mmHg 93%
    08:00 +5°C° 0 mm 4 mps 756 mmHg 93%
    09:00 +5°C° 0 mm 4 mps 757 mmHg 93%
    10:00 +6°C° 0 mm 5 mps 756 mmHg 90%
    11:00 +6°C° 0 mm 5 mps 756 mmHg 87%
    12:00 +7°C° 0 mm 5 mps 756 mmHg 84%
    13:00 +7°C° 0 mm 5 mps 756 mmHg 85%
    14:00 +7°C° 0 mm 5 mps 756 mmHg 86%
    15:00 +7°C° 0 mm 4 mps 756 mmHg 86%
    16:00 +6°C° 0 mm 4 mps 756 mmHg 87%
    17:00 +6°C° 0 mm 5 mps 756 mmHg 87%
    18:00 +6°C° 0 mm 5 mps 757 mmHg 87%
    19:00 +6°C° 0 mm 4 mps 757 mmHg 88%
    20:00 +5°C° 0 mm 4 mps 757 mmHg 90%
    21:00 +5°C° 0 mm 4 mps 757 mmHg 91%
    22:00 +4°C° 0 mm 4 mps 757 mmHg 92%
    23:00 +4°C° 0 mm 4 mps 757 mmHg 92%

    20 December, Thursday

    Time Temperature Precipitation Wind Pressure Humidity
    00:00 +4°C° 0 mm 4 mps 757 mmHg 93%
    01:00 +3°C° 0 mm 4 mps 757 mmHg 93%
    02:00 +3°C° 0 mm 4 mps 757 mmHg 93%
    03:00 +3°C° 0 mm 4 mps 757 mmHg 93%
    04:00 +3°C° 0 mm 4 mps 758 mmHg 92%
    05:00 +2°C° 0 mm 5 mps 758 mmHg 92%
    06:00 +2°C° 0 mm 5 mps 758 mmHg 92%
    07:00 +2°C° 0.1 mm 5 mps 758 mmHg 91%
    08:00 +2°C° 0.1 mm 6 mps 758 mmHg 90%
    09:00 +2°C° 0.1 mm 6 mps 758 mmHg 90%
    10:00 +3°C° 0 mm 6 mps 758 mmHg 87%
    11:00 +4°C° 0 mm 6 mps 758 mmHg 85%
    12:00 +5°C° 0 mm 7 mps 758 mmHg 83%
    13:00 +5°C° 0.3 mm 7 mps 758 mmHg 84%
    14:00 +5°C° 0.3 mm 6 mps 758 mmHg 85%
    15:00 +5°C° 0.3 mm 6 mps 758 mmHg 86%
    16:00 +5°C° 0.6 mm 6 mps 758 mmHg 86%
    17:00 +5°C° 0.6 mm 7 mps 758 mmHg 87%
    18:00 +5°C° 0.6 mm 7 mps 758 mmHg 87%
    19:00 +5°C° 0.3 mm 7 mps 758 mmHg 87%
    20:00 +5°C° 0.3 mm 7 mps 758 mmHg 87%
    21:00 +5°C° 0.3 mm 7 mps 758 mmHg 86%
    22:00 +5°C° 0.4 mm 7 mps 759 mmHg 87%
    23:00 +5°C° 0.4 mm 6 mps 759 mmHg 87%

    21 December, Friday

    Time Temperature Precipitation Wind Pressure Humidity
    00:00 +4°C° 0.4 mm 6 mps 759 mmHg 88%
    01:00 +4°C° 0.2 mm 6 mps 758 mmHg 88%
    02:00 +5°C° 0.2 mm 5 mps 758 mmHg 89%
    03:00 +5°C° 0.2 mm 5 mps 758 mmHg 90%
    04:00 +4°C° 0 mm 4 mps 758 mmHg 91%
    05:00 +4°C° 0 mm 4 mps 757 mmHg 93%
    06:00 +4°C° 0 mm 3 mps 757 mmHg 95%
    07:00 +4°C° 0.1 mm 3 mps 756 mmHg 95%
    08:00 +5°C° 0.1 mm 4 mps 755 mmHg 95%
    09:00 +5°C° 0.1 mm 4 mps 755 mmHg 94%
    10:00 +6°C° 0.7 mm 4 mps 754 mmHg 94%
    11:00 +7°C° 0.7 mm 4 mps 753 mmHg 94%
    12:00 +7°C° 0.7 mm 4 mps 752 mmHg 94%
    13:00 +8°C° 0.4 mm 5 mps 752 mmHg 94%
    14:00 +9°C° 0.4 mm 6 mps 752 mmHg 93%
    15:00 +10°C° 0.4 mm 6 mps 751 mmHg 92%
    16:00 +10°C° 0.1 mm 7 mps 752 mmHg 88%
    17:00 +10°C° 0.1 mm 7 mps 753 mmHg 84%
    18:00 +9°C° 0.1 mm 8 mps 753 mmHg 80%
    19:00 +9°C° 0 mm 7 mps 754 mmHg 81%
    20:00 +8°C° 0 mm 7 mps 755 mmHg 82%
    21:00 +7°C° 0 mm 6 mps 756 mmHg 83%
    22:00 +7°C° 0 mm 6 mps 756 mmHg 85%
    23:00 +7°C° 0 mm 6 mps 757 mmHg 88%
    Show more